Tracking 31027 objects as of 19-Jul-2025
HD Live streaming from Space Station
objects crossing your sky now

COSMOS 397 DEB

Track COSMOS 397 DEB now!
10-day predictions


NORAD ID: 5222
Int'l Code: 1971-015AW
Perigee: 564.4 km
Apogee: 1,523.7 km
Inclination: 65.7 °
Period: 105.9 minutes
Semi major axis: 7415 km
RCS: 0.0146 m2 (small)
Launch date: February 25, 1971
Source: Commonwealth of Independent States (former USSR) (CIS)
Launch site: TYURATAM MISSILE AND SPACE COMPLEX (TTMTR)

Note: This is SATELLITE DEBRIS
Your satellite tracking list
STARLINK-30236
Track 1 satellite(s)




NASA's NSSDC Master Catalog

Two Line Element Set (TLE):
1  5222U 71015AW  25199.19280325  .00002058  00000-0  70225-3 0  9995
2  5222  65.7227 130.7973 0646886  92.5317 274.9907 13.59669978616089
Source of the keplerian elements: AFSPC